Theta_e
314 319 321 317 317 319 318 316 320 315 315 315 318 318 320 319 312 312 315 315 318 318 320 320 318 318 318 319 322 323 325 324 327 329 328 329 328 326 324 322 322 325 324 324
313 322 321 319 317 314 312 313 317 315 310 313 317 315 316 316 315 313 313 314 315 316 318 318 319 319 318 317 317 319 319 321 325 327 327 328 327 327 326 325 324 323 324 324
319 319 314 316 316 315 311 314 314 317 311 311 312 315 315 313 312 311 311 312 313 314 316 317 318 318 318 317 317 316 316 319 319 323 328 330 331 331 329 328 327 326 324 324
317 312 312 315 316 318 317 311 313 311 312 318 310 321 318 314 314 311 312 312 313 314 314 315 316 317 317 317 317 317 317 318 318 320 322 328 325 327 323 324 325 326 327 325
316 310 312 314 315 313 318 310 311 311 312 311 313 313 316 311 312 313 313 313 314 315 316 315 315 314 315 316 316 317 318 318 318 319 321 321 324 323 324 326 325 326 327 328
308 307 311 314 312 313 307 309 309 309 311 315 315 313 316 315 314 315 314 314 313 315 316 316 316 315 315 314 314 315 316 317 318 318 318 320 320 320 323 324 323 325 327 328
307 308 306 308 310 308 310 314 313 315 315 317 307 309 314 313 313 312 313 313 312 312 313 315 315 315 314 314 314 313 314 316 316 315 314 314 315 320 321 322 323 324 326 328
317 315 308 308 312 311 312 315 317 319 316 316 305 312 313 312 312 312 309 310 309 309 310 311 311 311 312 312 312 312 312 312 313 312 311 311 312 314 320 321 323 323 326 327
318 314 307 306 306 311 312 313 312 309 303 311 312 311 310 311 311 309 309 308 309 309 310 309 310 311 311 311 311 311 310 310 310 311 311 311 311 313 315 318 320 320 325 327
312 312 307 306 307 306 311 310 311 311 316 316 313 310 313 312 311 311 309 309 309 310 310 310 310 310 311 310 310 310 309 309 309 310 311 311 312 313 314 316 317 319 322 325
313 311 308 307 309 310 309 310 310 313 311 315 314 314 311 313 310 310 310 308 306 308 309 309 309 310 310 310 310 310 310 310 310 311 311 311 311 312 314 316 317 318 320 320
309 310 310 309 307 307 311 311 311 313 311 309 309 314 307 309 310 306 308 307 306 307 308 308 310 310 310 310 310 310 310 310 311 311 312 312 313 314 314 315 314 313 312 314
309 312 314 311 309 307 309 308 311 311 309 314 317 315 306 305 306 307 307 308 307 308 308 309 310 310 310 310 310 310 310 310 310 310 310 310 310 310 310 310 310 310 310 310
309 310 315 313 310 309 309 309 309 310 315 312 311 313 309 308 308 308 308 308 308 308 309 309 310 310 310 310 310 310 310 311 312 313 313 313 313 313 312 312 311 310 310 309
310 313 310 308 310 310 310 309 308 308 310 311 313 312 311 311 309 309 308 309 309 309 308 309 310 310 310 310 311 311 312 312 312 312 312 312 312 312 312 312 312 312 312 312
307 314 310 307 306 309 311 309 309 309 310 310 311 311 307 310 309 307 308 308 309 310 310 309 310 310 310 310 310 310 310 310 310 310 310 310 310 311 311 312 312 313 315 316
310 310 311 314 308 310 312 310 310 310 310 310 310 311 308 307 307 309 309 308 307 308 309 310 310 310 310 310 310 310 310 310 309 309 309 309 310 310 311 312 313 315 316 317
309 310 313 311 310 313 312 311 310 310 310 310 310 309 310 309 309 309 310 310 310 308 308 309 310 310 310 310 309 309 309 309 309 309 310 309 309 310 311 312 314 315 316 316
310 310 311 312 312 312 310 306 308 309 310 309 309 309 309 307 307 308 310 310 310 311 310 310 309 308 308 309 309 309 309 309 309 309 309 309 310 310 311 312 313 314 314 313
308 310 314 307 312 311 310 306 305 307 310 310 308 308 308 306 309 310 309 310 310 310 310 310 309 309 308 308 308 308 308 308 308 309 309 309 309 310 310 311 313 312 311 311
309 310 311 310 312 311 306 304 307 311 310 310 309 308 307 307 309 309 309 309 308 308 309 309 308 308 307 307 307 307 307 307 307 308 308 308 309 309 310 310 310 310 310 309
310 311 312 312 311 311 303 303 309 310 310 308 307 306 306 307 307 305 306 307 307 307 307 307 306 307 307 307 307 307 307 307 307 306 307 308 308 309 309 309 308 309 309 308
311 310 312 311 311 305 302 307 306 307 307 307 307 308 307 306 305 304 305 305 306 306 306 307 307 307 307 307 307 308 307 307 306 306 306 307 308 308 308 309 308 308 308 308
305 304 310 310 308 306 307 305 305 306 306 307 308 309 308 306 305 305 305 306 306 307 307 307 307 307 307 307 307 307 308 307 306 305 305 306 307 307 308 308 307 308 308 308
308 305 306 306 302 304 305 308 308 307 307 306 307 307 307 307 307 307 306 306 306 306 307 307 307 307 307 307 307 307 307 307 306 306 306 306 307 307 308 308 307 307 307 307
301 304 309 310 305 307 307 308 307 305 305 305 306 305 305 305 305 304 304 303 304 305 306 306 306 306 307 307 307 307 307 307 306 306 306 306 306 306 306 306 306 306 306 304
Wind_Speed
18 10 16 18 14 4 10 7 10 4 3 4 13 16 17 19 13 14 19 18 21 25 21 23 24 25 25 27 29 30 30 29 30 30 29 28 27 24 24 23 25 24 22 20
9 20 14 15 13 5 3 4 8 5 1 5 12 18 17 20 21 21 20 21 22 23 24 24 27 27 28 28 29 31 32 31 33 33 32 30 28 28 24 23 22 21 22 24
19 13 20 16 16 14 6 9 7 6 0 5 8 16 18 14 23 20 22 23 20 24 27 26 28 30 29 30 31 31 32 34 34 33 33 34 33 33 30 29 27 25 24 24
11 14 21 18 20 21 12 12 10 5 4 7 2 8 8 6 16 15 25 28 30 30 29 30 32 33 33 33 33 34 35 34 33 32 36 39 35 36 31 30 27 26 25 25
12 17 20 20 22 19 6 11 9 3 6 4 9 7 4 4 10 17 25 29 34 33 36 33 34 32 31 32 35 36 36 35 35 36 37 35 38 35 32 31 29 27 25 25
4 3 14 15 11 18 16 11 5 2 2 9 14 10 8 10 15 16 22 29 35 42 38 38 38 36 34 35 34 35 37 39 39 37 36 38 37 35 36 34 31 27 25 24
5 8 4 10 14 9 10 16 4 5 6 7 2 7 13 7 15 14 15 17 20 27 36 44 43 38 36 35 36 37 38 42 40 38 37 37 37 36 36 34 31 29 28 25
15 9 16 10 10 12 21 18 7 9 7 4 2 9 4 10 22 22 18 18 17 13 23 29 26 27 29 31 36 39 41 41 40 39 36 35 34 36 35 34 32 29 29 27
16 8 7 8 6 16 16 16 5 5 2 1 6 5 10 16 15 11 16 16 21 20 18 15 15 16 22 26 29 33 38 39 38 37 34 34 32 32 33 31 30 29 29 28
9 7 8 4 7 1 15 12 8 4 6 6 5 5 9 5 12 8 9 12 18 20 22 24 20 17 17 19 21 22 24 27 29 31 30 28 28 29 29 29 29 28 27 25
13 5 6 8 12 18 9 14 6 7 4 3 2 4 8 13 7 6 9 14 13 15 16 20 20 15 13 12 12 13 14 17 20 23 24 25 25 25 25 26 26 26 24 22
5 5 8 22 4 3 13 14 14 6 7 3 1 5 4 7 7 4 9 8 4 8 11 15 17 14 12 12 12 12 13 14 16 17 18 18 19 21 22 24 24 24 24 24
10 3 6 5 5 2 16 10 22 9 1 7 5 5 5 2 5 6 5 5 4 5 9 15 16 15 12 12 13 14 14 15 15 15 16 17 19 21 21 21 22 23 23 22
12 4 5 10 6 8 8 13 13 13 4 6 15 15 1 3 6 3 6 5 5 7 9 13 15 14 14 14 14 15 15 14 13 13 13 15 15 16 16 18 19 19 20 21
10 6 3 3 6 10 7 12 11 15 26 12 31 18 16 11 3 2 4 5 5 7 11 14 15 14 14 15 15 16 15 15 14 15 16 17 18 19 20 19 19 19 20 20
2 4 9 2 2 4 5 14 22 27 22 26 26 28 0 13 19 12 16 13 11 7 9 13 16 17 17 16 18 18 17 16 16 18 18 19 21 21 21 20 19 19 19 19
8 5 5 16 5 6 3 27 22 23 26 26 25 17 13 8 11 24 27 30 26 21 17 15 16 19 17 17 20 21 19 19 21 20 20 20 21 20 21 21 21 21 21 21
13 8 3 4 5 9 13 19 24 25 22 29 30 13 9 18 24 26 30 32 34 30 19 20 22 25 20 18 21 23 24 23 21 20 21 20 22 21 21 23 23 23 24 23
16 9 5 7 11 8 19 7 15 14 28 21 24 20 23 15 15 22 32 35 38 39 39 39 28 25 25 23 25 25 25 23 24 25 24 22 23 24 24 25 25 26 26 25
6 12 4 5 14 17 8 10 12 8 24 17 21 18 15 17 12 18 34 47 51 46 43 43 38 28 23 21 24 25 25 26 27 28 26 26 26 26 25 24 25 26 26 25
9 8 19 8 10 11 2 11 27 12 9 15 28 30 25 13 23 25 24 34 39 39 36 29 30 29 25 24 25 26 26 28 27 27 28 27 27 26 24 24 26 27 27 26
13 13 9 8 11 20 7 9 22 8 9 5 1 17 18 28 26 19 17 17 16 17 18 18 18 18 19 20 20 22 25 24 25 27 27 29 29 28 28 27 26 27 27 27
9 8 7 11 11 2 18 7 18 13 9 15 14 12 12 12 15 18 15 16 17 16 14 11 12 16 15 15 16 17 17 19 21 24 26 27 28 29 28 28 28 28 28 28
4 4 4 4 5 4 11 18 16 19 14 14 13 12 11 10 9 10 10 9 8 8 8 8 9 11 12 13 15 15 15 15 16 18 20 22 25 26 26 26 26 27 28 29
4 11 9 2 1 1 12 24 23 16 16 12 15 16 14 13 13 11 9 8 7 6 4 4 4 4 5 6 6 7 8 9 9 11 13 17 19 22 22 23 24 25 25 25
1 1 9 7 8 6 2 28 26 18 16 15 14 13 14 13 12 9 9 9 9 8 7 5 4 4 4 4 4 4 4 5 6 6 8 11 14 16 18 20 22 24 25 26
Wind_Direction
183 183 194 174 181 187 184 161 240 224 187 223 237 252 253 249 233 244 239 223 223 229 230 227 224 220 217 215 217 220 222 224 227 227 229 232 236 238 239 242 247 245 244 243
172 213 193 180 180 141 135 124 242 271 174 221 264 261 259 251 239 236 238 236 231 230 229 227 225 222 221 219 220 223 226 225 229 232 235 238 242 245 247 250 250 245 245 242
186 184 162 165 182 184 195 195 212 259 158 236 287 272 250 241 233 236 240 241 241 236 233 228 229 229 228 226 226 227 230 230 234 236 239 241 243 245 244 244 245 245 249 248
195 171 168 170 182 184 190 197 218 214 229 253 246 281 245 265 236 220 233 234 238 239 239 236 234 230 230 233 233 234 234 235 238 238 239 241 243 246 251 251 252 252 252 252
177 166 172 185 186 185 192 167 185 176 242 280 228 263 247 262 257 239 230 232 236 238 241 240 238 235 235 237 237 237 238 238 239 239 241 244 245 249 251 252 255 252 252 251
116 173 179 189 170 183 137 120 96 123 260 257 245 230 252 241 248 250 240 236 235 239 240 245 247 248 246 244 242 239 238 238 238 240 242 243 245 247 249 249 251 250 249 250
153 169 115 149 139 168 180 162 156 221 218 247 88 240 256 245 249 235 250 247 238 237 236 241 246 249 250 248 245 240 237 237 239 240 241 243 244 245 247 251 252 251 251 249
172 198 180 172 189 173 187 179 184 188 199 200 140 239 234 249 254 262 264 264 258 255 244 241 246 248 249 247 244 241 239 238 237 238 237 242 240 239 243 246 249 251 251 249
181 172 164 181 146 156 182 209 161 105 22 223 211 252 261 254 261 268 266 261 255 241 238 225 232 249 244 240 239 238 238 239 238 238 238 240 238 236 238 242 244 245 245 245
183 128 188 136 120 166 188 150 187 229 192 228 212 251 234 207 233 265 270 254 258 245 237 232 243 249 246 238 236 233 231 234 238 236 237 238 237 238 239 238 241 243 244 242
169 117 156 158 202 181 159 192 192 189 221 237 259 227 219 234 170 271 291 267 288 227 234 225 220 227 228 222 219 220 222 221 223 226 230 233 234 234 233 236 240 241 241 238
150 106 154 190 52 257 197 195 191 190 194 255 17 256 176 213 204 271 315 298 271 225 215 202 196 200 202 202 204 205 207 209 213 215 219 224 227 229 231 237 243 243 240 234
170 125 115 151 231 211 205 190 205 204 86 198 185 244 44 180 225 278 283 292 270 215 200 192 199 205 204 202 201 203 205 209 211 213 217 222 228 233 236 236 235 234 234 233
146 133 150 187 204 133 191 199 202 202 225 186 235 236 350 214 235 235 229 249 247 225 212 209 209 209 207 202 200 200 199 204 206 211 217 223 229 231 232 230 229 229 228 225
174 161 106 91 160 163 160 181 178 197 226 210 246 243 232 251 243 225 237 210 211 232 222 214 214 211 210 211 208 209 208 211 214 223 231 235 237 238 237 235 233 229 219 213
246 175 175 92 95 135 163 185 193 210 216 231 248 257 101 239 231 232 229 230 230 247 255 237 223 215 213 216 222 218 212 216 224 231 237 239 240 240 239 238 232 222 212 209
167 119 135 217 141 98 287 212 204 217 219 227 236 239 191 208 222 237 249 254 253 250 270 248 229 215 211 227 231 217 215 226 229 231 237 241 238 237 236 231 224 218 215 217
155 139 123 138 139 214 260 184 212 221 227 226 244 236 227 222 227 238 242 258 267 275 261 243 241 232 231 247 243 226 225 230 237 241 241 240 236 233 230 229 223 219 219 220
188 160 151 169 204 283 272 197 199 198 244 231 239 242 238 242 257 255 244 249 258 261 266 269 265 255 252 258 240 234 232 237 239 240 240 241 238 233 230 227 224 221 216 214
146 192 152 164 212 227 301 168 141 97 265 217 222 231 216 193 239 247 241 246 249 253 253 260 269 266 253 241 233 237 237 239 242 241 241 239 235 233 232 228 223 221 217 216
169 177 207 193 223 252 240 137 148 186 252 214 215 222 211 202 229 256 250 240 247 253 248 254 264 268 264 255 252 251 247 247 249 246 244 240 237 234 231 229 229 218 216 216
172 173 198 200 225 250 129 152 186 218 208 203 226 219 214 229 240 247 245 242 238 248 247 244 254 257 258 260 259 255 253 251 244 241 238 236 234 230 229 227 222 218 219 222
191 197 167 197 215 77 181 197 205 202 218 217 219 240 232 241 237 231 225 239 253 257 249 243 244 254 249 249 254 252 250 246 244 239 234 229 227 228 228 225 222 222 224 225
242 160 187 133 206 202 201 220 217 223 248 249 232 211 181 182 184 185 197 194 215 220 231 234 235 231 236 242 244 246 246 245 241 237 234 229 226 225 223 222 223 227 227 226
184 158 177 249 202 204 241 221 227 228 239 227 210 198 176 178 174 181 172 169 178 171 171 180 201 193 201 214 224 228 226 223 225 226 222 219 217 219 222 224 228 234 237 238
293 121 186 215 186 205 235 227 229 219 196 187 185 176 161 169 171 173 166 154 152 137 138 135 135 142 148 164 183 191 197 201 186 194 204 209 217 222 226 231 234 234 234 233